Home   Weather   Papeete   Past weeks

Flag for French Polynesia Past Weather in Papeete, Tahiti, French Polynesia — Yesterday and Last 2 Weeks

Now
79 °F

Passing clouds.


Feels Like: 82 °F
Forecast: 78 / 81 °F
Wind: 5 mph from South

Location: Tahiti-Faaa

Current Time: Jul 21, 2017 at 1:02:12 am

Latest Report: Jul 21, 2017 at 12:30 am


Visibility: N/A

Pressure: 30.04 "Hg

Humidity: 79%

Dew Point: 72 °F

Location of PapeeteLocation

Past Weather in Papeete — Graph

°F

Papeete Temperature Yesterday

Maximum temperature yesterday: 88 °F (at 2:00 pm)
Minimum temperature yesterday: 75 °F (at 6:30 am)
Average temperature yesterday: 81 °F

High & Low Weather Summary for the Past Weeks

 TemperatureHumidityPressure
High88 °F (Jul 18, 2:38 pm)89% (Jul 12, 2:30 am)30.09 "Hg (Jul 12, 2:30 am)
Low72 °F (Jul 9, 3:00 am)59% (Jul 9, 12:30 pm)29.86 "Hg (Jul 9, 2:00 pm)
Average80 °F74%29.99 "Hg
* Reported Jul 6 12:00 am — Jul 21 12:00 am, Papeete. Weather by CustomWeather, © 2017

Note: Actual official high and low records may vary slightly from our data, if they occured in-between our weather recording intervals... More about our weather records

Advertising

Papeete Weather History for the Previous 24 Hours

Scroll right to see more
 ConditionsComfort  
Time TempWeatherWind HumidityBarometerVisibility
12:00 am
Fri, Jul 21
79 °FPassing clouds.2 mph79%30.04 "HgN/A
11:30 pm
Thu, Jul 20
79 °FPassing clouds.7 mph79%30.04 "HgN/A
11:00 pm79 °FPassing clouds.3 mph79%30.07 "HgN/A
10:30 pm79 °FPassing clouds.5 mph79%30.07 "HgN/A
10:00 pm79 °FPassing clouds.6 mph79%30.07 "HgN/A
9:30 pm81 °FPassing clouds.6 mph74%30.07 "HgN/A
9:00 pm81 °FPassing clouds.8 mph79%30.07 "HgN/A
8:30 pm81 °FPassing clouds.8 mph84%30.07 "HgN/A
8:00 pm81 °FPassing clouds.5 mph79%30.04 "HgN/A
7:00 pm81 °FPassing clouds.5 mph74%30.04 "HgN/A
6:30 pm82 °FPassing clouds.3 mph70%30.04 "HgN/A
6:00 pm82 °FPassing clouds.5 mph70%30.01 "HgN/A
5:30 pm82 °FPassing clouds.8 mph70%30.01 "HgN/A
5:00 pm84 °FPassing clouds.8 mph70%30.01 "HgN/A
4:30 pm86 °FPassing clouds.6 mph62%30.01 "HgN/A
4:00 pm88 °FPassing clouds.3 mph59%29.98 "HgN/A
3:30 pm86 °FPassing clouds.9 mph66%29.98 "HgN/A
3:00 pm86 °FPassing clouds.9 mph66%30.01 "HgN/A
2:30 pm88 °FPassing clouds.7 mph62%30.01 "HgN/A
2:00 pm88 °FPassing clouds.6 mph62%30.01 "HgN/A
1:30 pm86 °FPassing clouds.8 mph66%30.04 "HgN/A
1:00 pm86 °FPassing clouds.7 mph66%30.04 "HgN/A
12:30 pm86 °FPassing clouds.7 mph66%30.07 "HgN/A
12:00 pm86 °FPassing clouds.8 mph66%30.07 "HgN/A
11:30 am84 °FPassing clouds.10 mph70%30.07 "HgN/A
11:00 am84 °FPassing clouds.7 mph66%30.07 "HgN/A
10:30 am84 °FPassing clouds.5 mph70%30.09 "HgN/A
10:00 am84 °FPassing clouds.5 mph70%30.09 "HgN/A
9:30 am84 °FPassing clouds.3 mph70%30.09 "HgN/A
9:00 am82 °FPassing clouds.5 mph70%30.09 "HgN/A
8:30 am82 °FPassing clouds.5 mph70%30.09 "HgN/A
8:00 am81 °FPassing clouds.5 mph74%30.07 "HgN/A
7:30 am79 °FPassing clouds.3 mph79%30.07 "HgN/A
7:00 am75 °FPassing clouds.2 mph89%30.07 "HgN/A
6:30 am75 °FScattered clouds.3 mph89%30.07 "HgN/A
6:00 am77 °FPassing clouds.3 mph79%30.04 "HgN/A
5:30 am77 °FPassing clouds.3 mph83%30.04 "HgN/A
5:00 am77 °FPassing clouds.5 mph83%30.04 "HgN/A
4:30 am77 °FPassing clouds.1 mph83%30.04 "HgN/A
4:00 am77 °FPassing clouds.3 mph83%30.04 "HgN/A
3:30 am77 °FPassing clouds.2 mph79%30.04 "HgN/A
2:30 am77 °FPassing clouds.3 mph83%30.04 "HgN/A
2:05 am77 °FPassing clouds.3 mph83%30.07 "HgN/A
1:30 am77 °FPassing clouds.5 mph83%30.07 "HgN/A
1:00 am79 °FPassing clouds.3 mph79%30.07 "HgN/A
Weather by CustomWeather, © 2017

See weather overviewHow to use our weather pages